"1997/01/01",  7.4,  8.8,  6.4
"1997/01/02",  8.9, 10.1,  7.6
"1997/01/03",  6.9,  8.1,  5.8
"1997/01/04",  6.2,  7.4,  5.2
"1997/01/05",  5.6,  6.8,  4.2
"1997/01/06",  7.0,  8.6,  5.9
"1997/01/07",  6.0,  7.6,  4.7
"1997/01/08",  5.7,  6.9,  4.6
"1997/01/09",  5.5,  7.1,  4.2
"1997/01/10",  4.9,  6.3,  3.8
"1997/01/11",  4.7,  6.4,  3.4
"1997/01/12",  4.8,  6.4,  3.6
"1997/01/13",  5.0,  6.7,  3.8
"1997/01/14",  4.7,  6.3,  3.3
"1997/01/15",  5.2,  6.9,  3.9
"1997/01/16",  4.4,  5.6,  3.5
"1997/01/17",  4.3,  6.2,  3.0
"1997/01/18",  5.2,  7.0,  4.0
"1997/01/19",  5.4,  7.1,  3.9
"1997/01/20",  5.9,  7.5,  4.6
"1997/01/21",  5.5,  7.0,  4.0
"1997/01/22",  4.3,  5.5,  3.4
"1997/01/23",  4.1,  5.9,  2.8
"1997/01/24",  5.1,  6.3,  3.7
"1997/01/25",  5.2,  6.2,  4.2
"1997/01/26",  4.6,  6.1,  3.3
"1997/01/27",  4.6,  6.4,  3.2
"1997/01/28",  4.7,  6.7,  3.1
"1997/01/29",  4.8,  6.2,  3.6
"1997/01/30",  4.0,  5.3,  3.1
"1997/01/31",  3.6,  4.9,  2.5
"1997/02/01",  4.2,  6.1,  2.8
"1997/02/02",  4.2,  5.9,  2.7
"1997/02/03",  5.1,  5.6,  4.7
"1997/02/04"," * "," * "," * "
"1997/02/05"," * "," * "," * "
"1997/02/06"," * "," * "," * "
"1997/02/07"," * "," * "," * "
"1997/02/08"," * "," * "," * "
"1997/02/09"," * "," * "," * "
"1997/02/10"," * "," * "," * "
"1997/02/11"," * "," * "," * "
"1997/02/12"," * "," * "," * "
"1997/02/13",  5.3,  6.9,  4.0
"1997/02/14",  5.0,  6.7,  3.5
"1997/02/15",  5.3,  6.8,  4.0
"1997/02/16",  6.2,  7.1,  5.7
"1997/02/17",  6.1,  7.5,  4.7
"1997/02/18",  6.1,  7.7,  5.1
"1997/02/19",  5.5,  6.8,  4.5
"1997/02/20",  5.3,  7.8,  3.4
"1997/02/21",  5.2,  6.7,  4.2
"1997/02/22",  4.0,  5.3,  3.2
"1997/02/23",  4.2,  6.4,  2.6
"1997/02/24",  5.1,  7.5,  3.1
"1997/02/25",  5.9,  8.4,  3.7
"1997/02/26",  7.8, 10.0,  5.9
"1997/02/27",  7.8,  9.9,  6.5
"1997/02/28",  7.7,  8.9,  6.6
"1997/03/01",  9.3, 10.7,  8.3
"1997/03/02",  7.7,  8.5,  6.8
"1997/03/03",  7.1,  7.5,  6.7
"1997/03/04",  7.4,  9.2,  6.2
"1997/03/05",  7.8, 10.4,  5.6
"1997/03/06",  7.9,  9.4,  6.2
"1997/03/07", 10.0, 12.3,  8.2
"1997/03/08", 10.2, 11.8,  8.8
"1997/03/09",  9.0, 10.9,  7.5
"1997/03/10",  8.5, 10.7,  6.4
"1997/03/11",  9.9, 12.4,  7.9
"1997/03/12",  9.6, 12.3,  7.6
"1997/03/13",  9.7, 11.9,  7.7
"1997/03/14", 10.9, 13.4,  9.1
"1997/03/15",  9.8, 11.3,  9.0
"1997/03/16",  8.2,  9.0,  7.5
"1997/03/17",  8.5, 10.9,  6.8
"1997/03/18",  9.0, 11.4,  7.2
"1997/03/19",  9.5, 10.8,  8.3
"1997/03/20",  9.8, 11.7,  8.3
"1997/03/21", 10.1, 12.7,  8.1
"1997/03/22", 10.0, 10.4,  9.7
"1997/03/23",  9.1,  9.7,  8.3
"1997/03/24",  9.0, 11.1,  7.7
"1997/03/25",  8.9, 11.7,  6.4
"1997/03/26", 10.3, 12.7,  8.2
"1997/03/27", 10.2, 10.7,  9.3
"1997/03/28", 10.4, 13.4,  7.7
"1997/03/29", 11.2, 12.3,  9.9
"1997/03/30", 14.4, 17.1, 11.7
"1997/03/31", 12.5, 13.9, 11.4
"1997/04/01", 12.5, 15.2, 10.4
"1997/04/02", 12.7, 13.9, 11.7
"1997/04/03", 12.2, 12.7, 11.5
"1997/04/04", 13.0, 15.3, 11.4
"1997/04/05", 13.3, 13.7, 13.0
"1997/04/06", 12.9, 13.1, 12.7
"1997/04/07", 13.4, 14.3, 12.7
"1997/04/08", 14.4, 17.2, 12.1
"1997/04/09", 15.3, 17.5, 13.5
"1997/04/10", 15.0, 17.0, 13.5
"1997/04/11", 14.7, 17.4, 12.4
"1997/04/12", 14.3, 16.5, 12.3
"1997/04/13", 14.4, 17.1, 12.1
"1997/04/14", 14.9, 17.8, 12.6
"1997/04/15", 13.3, 14.4, 12.4
"1997/04/16", 13.6, 16.4, 11.7
"1997/04/17", 14.1, 16.2, 12.6
"1997/04/18", 14.6, 17.0, 12.4
"1997/04/19", 14.8, 16.8, 13.6
"1997/04/20", 15.0, 17.7, 13.1
"1997/04/21", 14.9, 16.4, 13.3
"1997/04/22", 15.4, 17.3, 14.2
"1997/04/23", 13.8, 14.9, 12.6
"1997/04/24", 13.7, 17.0, 11.2
"1997/04/25", 14.5, 17.6, 11.9
"1997/04/26", 14.8, 18.0, 12.2
"1997/04/27", 15.4, 18.5, 12.8
"1997/04/28", 15.1, 16.0, 14.1
"1997/04/29", 17.2, 20.5, 14.8
"1997/04/30", 17.4, 19.4, 15.6
"1997/05/01", 18.2, 21.0, 16.3
"1997/05/02", 18.0, 20.4, 15.8
"1997/05/03", 17.4, 18.1, 16.7
"1997/05/04", 16.6, 17.7, 15.9
"1997/05/05", 18.5, 21.7, 16.2
"1997/05/06", 18.8, 20.6, 17.1
"1997/05/07", 19.3, 21.7, 17.8
"1997/05/08", 19.0, 19.9, 18.3
"1997/05/09", 17.9, 19.1, 16.3
"1997/05/10", 17.0, 19.3, 15.1
"1997/05/11", 18.0, 20.1, 16.4
"1997/05/12", 18.6, 21.1, 16.7
"1997/05/13", 18.1, 19.4, 16.9
"1997/05/14", 18.0, 18.4, 17.6
"1997/05/15", 18.4, 19.2, 17.7
"1997/05/16", 20.0, 22.0, 18.4
"1997/05/17", 20.3, 21.3, 19.6
"1997/05/18", 20.0, 21.7, 18.5
"1997/05/19", 19.1, 19.9, 18.3
"1997/05/20", 17.9, 18.4, 17.5
"1997/05/21", 18.8, 21.6, 17.1
"1997/05/22", 18.7, 20.8, 17.1
"1997/05/23", 18.1, 19.0, 17.4
"1997/05/24", 17.8, 18.4, 17.2
"1997/05/25", 19.1, 21.5, 17.7
"1997/05/26", 19.7, 21.5, 18.2
"1997/05/27", 19.9, 22.5, 18.2
"1997/05/28", 19.9, 22.1, 18.1
"1997/05/29", 19.6, 21.0, 18.4
"1997/05/30", 20.5, 23.3, 18.4
"1997/05/31", 21.3, 23.4, 19.9
"1997/06/01", 21.7, 24.1, 20.0
"1997/06/02", 21.2, 22.0, 20.4
"1997/06/03", 21.9, 24.2, 20.3
"1997/06/04", 21.2, 21.7, 20.8
"1997/06/05", 21.6, 24.0, 19.8
"1997/06/06", 20.8, 21.5, 19.6
"1997/06/07", 20.7, 23.4, 18.8
"1997/06/08", 20.4, 21.4, 19.6
"1997/06/09", 19.3, 19.7, 18.9
"1997/06/10", 21.3, 24.0, 19.4
"1997/06/11", 20.4, 21.9, 19.6
"1997/06/12", 21.2, 23.9, 19.3
"1997/06/13", 21.6, 23.3, 20.4
"1997/06/14", 21.8, 23.7, 20.5
"1997/06/15", 21.8, 23.2, 20.6
"1997/06/16", 22.2, 24.3, 20.9
"1997/06/17", 21.4, 22.1, 20.6
"1997/06/18", 21.0, 21.5, 20.4
"1997/06/19", 21.6, 22.9, 20.6
"1997/06/20", 22.0, 22.3, 21.6
"1997/06/21", 22.6, 24.3, 21.4
"1997/06/22", 22.6, 23.3, 21.9
"1997/06/23", 22.2, 22.9, 21.9
"1997/06/24", 23.1, 25.5, 21.3
"1997/06/25", 23.6, 25.5, 22.0
"1997/06/26", 24.4, 26.3, 23.0
"1997/06/27", 24.9, 27.0, 23.2
"1997/06/28", 24.4, 25.0, 24.0
"1997/06/29", 24.0, 25.3, 23.2
"1997/06/30", 23.7, 25.7, 22.3
"1997/07/01", 23.9, 25.4, 22.7
"1997/07/02", 24.0, 25.1, 23.0
"1997/07/03", 24.8, 26.9, 23.1
"1997/07/04", 25.4, 27.3, 23.9
"1997/07/05", 25.8, 28.2, 24.1
"1997/07/06", 26.2, 28.7, 24.5
"1997/07/07", 26.0, 28.3, 24.4
"1997/07/08", 26.3, 28.3, 25.0
"1997/07/09", 26.2, 27.9, 24.7
"1997/07/10", 24.1, 25.6, 23.1
"1997/07/11", 23.1, 23.7, 22.7
"1997/07/12", 23.1, 23.5, 22.8
"1997/07/13", 23.6, 24.4, 22.7
"1997/07/14", 24.8, 26.0, 23.9
"1997/07/15", 25.4, 27.5, 23.6
"1997/07/16", 26.5, 28.7, 24.6
"1997/07/17", 24.7, 26.2, 23.0
"1997/07/18", 23.8, 25.7, 22.4
"1997/07/19", 24.5, 27.0, 22.4
"1997/07/20", 25.2, 27.5, 23.2
"1997/07/21", 25.7, 28.1, 23.9
"1997/07/22", 25.9, 28.1, 24.0
"1997/07/23", 25.7, 27.1, 24.6
"1997/07/24", 26.2, 28.5, 24.7
"1997/07/25", 26.3, 28.1, 24.9
"1997/07/26", 26.0, 26.9, 25.1
"1997/07/27", 26.5, 28.0, 25.2
"1997/07/28", 26.2, 27.1, 25.3
"1997/07/29", 26.4, 28.0, 25.2
"1997/07/30", 25.4, 26.1, 24.8
"1997/07/31", 25.6, 27.1, 24.2
"1997/08/01", 26.6, 28.6, 24.9
"1997/08/02", 27.4, 29.6, 25.5
"1997/08/03", 27.8, 29.6, 26.3
"1997/08/04", 27.8, 29.6, 26.5
"1997/08/05", 26.6, 27.3, 26.0
"1997/08/06", 26.4, 27.5, 25.5
"1997/08/07", 27.0, 29.2, 25.4
"1997/08/08", 26.6, 27.5, 25.9
"1997/08/09", 26.9, 28.5, 25.7
"1997/08/10", 27.3, 28.9, 26.0
"1997/08/11", 27.3, 28.8, 26.2
"1997/08/12", 26.8, 27.6, 26.0
"1997/08/13", 27.1, 29.0, 25.6
"1997/08/14", 25.6, 27.1, 24.5
"1997/08/15", 24.3, 24.9, 23.8
"1997/08/16", 23.5, 23.9, 23.0
"1997/08/17", 24.0, 25.9, 22.6
"1997/08/18", 24.5, 26.3, 23.0
"1997/08/19", 25.3, 26.7, 24.2
"1997/08/20", 25.4, 27.4, 23.8
"1997/08/21", 26.2, 28.5, 24.5
"1997/08/22"," * "," * "," * "
"1997/08/23", 26.6, 28.3, 25.3
"1997/08/24", 26.6, 28.7, 25.2
"1997/08/25", 25.8, 26.7, 25.2
"1997/08/26", 24.8, 25.2, 24.3
"1997/08/27", 25.0, 27.2, 23.4
"1997/08/28", 25.9, 28.2, 24.4
"1997/08/29", 26.1, 28.1, 24.7
"1997/08/30", 26.3, 28.2, 25.0
"1997/08/31", 26.2, 28.0, 24.8
"1997/09/01", 26.4, 28.0, 25.0
"1997/09/02", 26.5, 28.1, 25.3
"1997/09/03", 26.7, 28.0, 25.7
"1997/09/04", 26.6, 27.8, 25.8
"1997/09/05", 25.6, 26.3, 25.0
"1997/09/06", 25.8, 27.9, 24.3
"1997/09/07", 26.1, 27.6, 25.0
"1997/09/08", 24.8, 26.1, 23.5
"1997/09/09", 24.0, 24.3, 23.8
"1997/09/10", 24.9, 26.6, 23.7
"1997/09/11", 25.3, 27.1, 24.1
"1997/09/12", 24.9, 25.7, 24.3
"1997/09/13", 23.5, 24.3, 22.7
"1997/09/14", 22.9, 23.4, 22.6
"1997/09/15", 22.0, 22.8, 21.5
"1997/09/16", 21.2, 21.6, 20.9
"1997/09/17", 22.2, 23.5, 20.9
"1997/09/18", 23.0, 23.6, 22.5
"1997/09/19", 22.8, 23.4, 22.4
"1997/09/20", 22.3, 23.4, 21.3
"1997/09/21", 21.6, 22.2, 21.3
"1997/09/22", 21.8, 22.5, 21.3
"1997/09/23", 21.2, 21.7, 20.7
"1997/09/24", 20.7, 21.5, 20.2
"1997/09/25", 20.7, 21.5, 19.9
"1997/09/26", 20.2, 20.8, 19.9
"1997/09/27", 20.2, 20.8, 19.9
"1997/09/28", 20.1, 21.2, 19.3
"1997/09/29", 19.9, 21.3, 18.7
"1997/09/30", 20.2, 21.4, 19.2
"1997/10/01", 19.8, 21.1, 18.8
"1997/10/02", 19.6, 20.7, 18.7
"1997/10/03", 20.1, 21.4, 19.3
"1997/10/04", 19.8, 20.3, 19.3
"1997/10/05", 19.9, 21.0, 19.1
"1997/10/06", 20.1, 21.0, 19.4
"1997/10/07", 19.7, 20.2, 19.3
"1997/10/08", 19.9, 21.0, 19.2
"1997/10/09", 18.7, 19.5, 17.8
"1997/10/10", 19.2, 20.1, 18.5
"1997/10/11", 19.3, 20.3, 18.5
"1997/10/12", 19.0, 19.9, 18.3
"1997/10/13", 18.3, 19.3, 17.5
"1997/10/14", 17.7, 18.8, 16.7
"1997/10/15", 17.8, 19.1, 16.8
"1997/10/16", 17.3, 18.4, 16.3
"1997/10/17", 17.5, 18.0, 17.0
"1997/10/18", 17.6, 18.8, 16.7
"1997/10/19", 17.8, 18.9, 17.0
"1997/10/20", 17.9, 19.2, 17.1
"1997/10/21"," * "," * "," * "
"1997/10/22", 18.0, 19.1, 17.2
"1997/10/23", 18.3, 19.3, 17.5
"1997/10/24", 18.2, 19.2, 17.3
"1997/10/25", 18.9, 20.0, 18.2
"1997/10/26", 18.2, 18.8, 17.3
"1997/10/27", 16.5, 17.3, 15.5
"1997/10/28", 15.5, 16.7, 14.4
"1997/10/29", 16.4, 17.4, 15.4
"1997/10/30", 15.7, 16.8, 14.9
"1997/10/31", 15.9, 16.5, 15.5
"1997/11/01", 15.1, 15.7, 14.5
"1997/11/02", 14.4, 15.4, 13.2
"1997/11/03", 15.7, 16.6, 15.0
"1997/11/04", 16.1, 16.7, 15.5
"1997/11/05", 15.7, 16.7, 14.7
"1997/11/06", 15.1, 16.0, 14.4
"1997/11/07", 14.2, 15.6, 13.2
"1997/11/08", 14.0, 15.3, 13.2
"1997/11/09", 13.6, 15.1, 12.5
"1997/11/10", 14.0, 15.3, 12.8
"1997/11/11", 14.2, 15.6, 13.1
"1997/11/12", 13.8, 15.3, 12.6
"1997/11/13", 14.1, 14.8, 13.5
"1997/11/14", 14.5, 14.9, 14.0
"1997/11/15", 15.1, 16.0, 14.4
"1997/11/16", 15.0, 15.7, 14.4
"1997/11/17", 15.0, 15.4, 14.5
"1997/11/18", 14.3, 15.0, 13.1
"1997/11/19", 12.7, 14.0, 11.6
"1997/11/20", 12.3, 12.9, 11.7
"1997/11/21", 13.4, 14.1, 12.6
"1997/11/22", 14.3, 14.6, 13.9
"1997/11/23", 14.3, 14.7, 13.0
"1997/11/24", 12.8, 13.9, 12.0
"1997/11/25", 12.2, 13.2, 11.3
"1997/11/26", 13.0, 14.6, 12.3
"1997/11/27", 15.6, 16.8, 14.6
"1997/11/28", 13.8, 14.8, 13.3
"1997/11/29", 13.1, 13.6, 12.9
"1997/11/30", 14.9, 15.8, 13.6
"1997/12/01", 12.7, 13.9, 12.2
"1997/12/02", 12.2, 12.6, 11.0
"1997/12/03",  9.8, 11.0,  8.7
"1997/12/04",  8.8, 10.1,  7.8
"1997/12/05",  9.3, 10.6,  8.5
"1997/12/06",  9.9, 11.1,  8.9
"1997/12/07", 11.1, 12.0, 10.4
"1997/12/08", 12.3, 12.8, 11.9
"1997/12/09", 12.7, 13.1, 12.1
"1997/12/10", 11.7, 12.5, 10.5
"1997/12/11",  9.8, 10.7,  8.8
"1997/12/12",  9.1,  9.9,  8.4
"1997/12/13",  8.6,  9.7,  7.7
"1997/12/14",  8.2,  9.1,  7.6
"1997/12/15",  8.2,  9.4,  7.2
"1997/12/16",  8.1,  9.4,  7.0
"1997/12/17",  7.9,  8.7,  7.1
"1997/12/18",  9.3, 10.7,  8.5
"1997/12/19",  9.3, 10.6,  8.3
"1997/12/20",  9.5, 10.5,  8.5
"1997/12/21",  9.3, 10.4,  8.5
"1997/12/22",  8.1,  8.7,  7.4
"1997/12/23",  7.9,  8.1,  7.6
"1997/12/24",  7.6,  8.1,  7.0
"1997/12/25",  7.2,  8.1,  6.4
"1997/12/26",  7.3,  8.2,  6.3
"1997/12/27",  8.1,  8.9,  7.7
"1997/12/28",  7.9,  9.1,  6.9
"1997/12/29",  7.7,  8.7,  6.9
"1997/12/30",  7.5,  7.8,  7.2
"1997/12/31",  7.5,  8.5,  6.7
